Date,TemperatureHighF,TemperatureAvgF,TemperatureLowF,DewpointHighF,DewpointAvgF,DewpointLowF,HumidityHigh,HumidityAvg,HumidityLow,PressureMaxIn,PressureMinIn,WindSpeedMaxMPH,WindSpeedAvgMPH,GustSpeedMaxMPH,PrecipitationSumIn
2012-1-1,59,42,29,55,38,28,99,89,57,30.17,29.96,7,1,20,0.29
2012-1-2,41,32,22,27,18,11,79,57,39,30.19,30.03,12,4,24,0.00
2012-1-3,26,21,17,16,12,8,87,70,52,30.40,30.20,8,3,16,0.00
2012-1-4,44,25,13,25,16,10,92,74,26,30.44,30.19,5,0,14,0.00
2012-1-5,53,33,22,32,25,21,96,78,36,30.22,30.14,5,1,10,0.00
2012-1-6,60,35,24,34,27,23,97,79,26,30.19,30.04,3,0,10,0.00
2012-1-7,55,46,33,53,45,30,99,96,89,30.10,30.02,2,0,5,0.21
2012-1-8,47,47,46,47,47,46,100,100,99,30.12,30.10,0,0,2,0.04
2012-1-9,61,56,51,57,54,50,100,95,87,30.10,30.01,6,1,12,0.19
2012-1-10,57,53,49,55,52,49,100,98,91,30.03,29.81,1,0,6,0.01
2012-1-11,60,53,46,54,50,45,100,90,69,29.81,29.37,8,4,27,0.72
2012-1-12,48,42,26,44,38,16,99,88,67,29.81,29.50,14,4,33,0.30
2012-1-13,29,24,20,20,18,14,94,77,63,30.22,29.81,12,4,20,0.00
2012-1-14,43,28,15,30,21,14,95,78,41,30.31,30.12,7,1,15,0.00
2012-1-15,46,34,26,31,26,24,95,73,43,30.47,30.17,7,1,15,0.00
2012-1-16,49,38,24,34,28,23,95,71,41,30.50,30.32,6,1,10,0.00
2012-1-17,55,48,38,54,46,34,99,93,78,30.32,29.94,5,1,10,0.96
2012-1-18,53,37,28,50,32,26,97,85,62,30.12,29.99,8,1,12,0.00
2012-1-19,42,31,25,31,26,20,96,82,44,30.17,30.06,1,0,5,0.00
2012-1-20,47,42,34,47,42,31,99,97,92,30.14,29.98,0,0,4,0.43
2012-1-21,55,50,41,55,50,41,99,98,94,30.04,29.85,2,0,10,0.31
2012-1-22,55,47,37,52,45,36,99,94,86,30.17,30.03,5,1,18,0.02
2012-1-23,58,52,46,52,49,45,98,90,78,30.03,29.89,10,3,22,0.67
2012-1-24,59,42,32,47,38,31,99,88,43,30.26,29.99,3,0,10,0.00
2012-1-25,66,47,29,48,37,28,97,75,30,30.28,30.10,3,1,12,0.00
2012-1-26,63,60,55,57,54,48,94,82,73,30.10,29.55,8,3,25,0.27
2012-1-27,62,45,30,54,41,30,97,86,64,30.02,29.54,8,2,21,0.44
2012-1-28,54,36,27,41,31,25,97,84,58,30.29,30.01,12,1,18,0.00
2012-1-29,48,32,20,25,20,12,94,70,24,30.41,30.29,8,2,20,0.00
2012-1-30,56,36,23,32,26,21,94,73,29,30.45,30.32,7,1,13,0.00
2012-1-31,60,40,26,38,30,22,95,73,23,30.42,30.26,3,0,9,0.00
2012-2-1,50,45,34,49,43,32,98,92,85,30.29,30.08,2,0,6,0.87
2012-2-2,60,49,34,51,44,32,99,83,43,30.28,30.06,8,2,14,0.04
2012-2-3,61,43,30,39,34,29,97,76,35,30.40,30.27,7,1,13,0.00
2012-2-4,50,46,43,50,45,39,98,95,87,30.31,30.05,3,0,6,0.83
2012-2-5,59,51,38,54,47,37,99,89,67,30.09,29.99,8,1,14,0.02
2012-2-6,55,43,34,43,38,33,98,85,61,30.17,30.08,8,1,14,0.00
2012-2-7,56,38,28,38,32,26,98,82,35,30.19,30.09,5,1,12,0.00
2012-2-8,50,40,31,36,34,30,96,78,58,30.22,30.12,9,3,24,0.00
2012-2-9,50,38,29,32,29,26,94,72,42,30.25,30.12,9,2,17,0.00
2012-2-10,48,37,27,36,30,26,96,78,51,30.17,29.93,3,1,12,0.00
2012-2-11,41,29,20,33,22,8,91,75,59,30.30,29.88,12,4,28,0.00
2012-2-12,36,24,16,19,12,6,85,61,40,30.38,30.30,14,3,20,0.01
2012-2-13,47,31,16,28,21,14,93,70,29,30.32,30.08,5,1,12,0.00
2012-2-14,40,37,33,39,35,28,98,93,62,30.11,29.99,1,0,10,0.17
2012-2-15,67,46,29,43,36,29,98,76,27,30.23,30.08,5,1,12,0.00
2012-2-16,58,48,41,55,46,39,98,93,83,30.17,29.99,2,0,9,0.24
2012-2-17,62,45,32,48,38,29,99,81,29,30.14,30.02,8,1,16,0.00
2012-2-18,62,48,34,48,42,33,98,81,50,30.07,29.87,6,1,10,0.08
2012-2-19,49,44,34,48,42,31,98,93,83,29.96,29.60,8,2,22,0.58
2012-2-20,56,40,29,39,33,28,97,79,42,30.22,29.95,7,1,16,0.01
2012-2-21,55,41,28,41,35,27,95,80,57,30.22,29.99,5,1,16,0.00
2012-2-22,62,48,30,52,42,29,98,81,57,30.02,29.56,8,2,20,0.10
2012-2-23,73,62,46,57,52,45,98,73,46,29.63,29.48,8,3,21,0.00
2012-2-24,68,56,39,59,44,24,84,64,35,29.98,29.52,7,4,30,0.04
2012-2-25,49,38,27,24,21,15,85,55,25,30.31,29.98,8,2,30,0.00
2012-2-26,56,38,22,28,22,18,92,60,23,30.40,30.30,6,1,14,0.00
2012-2-27,64,47,33,47,39,27,91,74,49,30.39,30.26,2,0,9,0.00
2012-2-28,70,51,31,50,40,30,96,70,38,30.37,30.19,6,1,14,0.00
2012-2-29,66,61,56,60,57,51,95,86,75,30.16,29.81,8,2,20,0.25
2012-3-1,63,53,41,59,50,39,98,89,65,29.87,29.79,5,1,15,0.15
2012-3-2,70,58,40,61,53,39,97,86,67,29.85,29.62,6,2,23,1.18
2012-3-3,58,49,43,58,37,17,98,67,24,29.78,29.56,10,3,21,0.58
2012-3-4,43,38,32,34,25,17,85,63,39,30.01,29.75,6,2,24,0.00
2012-3-5,46,39,28,33,25,17,87,60,34,30.45,29.92,8,3,26,0.00
2012-3-6,64,42,23,29,22,12,92,55,13,30.55,30.41,7,2,16,0.00
2012-3-7,61,52,37,48,42,28,78,69,54,30.53,30.32,5,2,18,0.00
2012-3-8,68,61,55,56,51,48,93,70,53,30.32,30.01,8,3,15,0.58
2012-3-9,56,52,49,54,43,27,97,74,37,30.23,30.02,9,3,21,0.35
2012-3-10,66,48,28,36,32,27,96,59,26,30.41,30.30,6,1,16,0.00
2012-3-11,63,40,28,34,31,27,94,74,35,30.46,30.41,5,1,13,0.00
2012-3-12,59,56,54,54,52,49,98,86,74,30.28,30.18,5,1,9,0.23
2012-3-13,74,61,51,60,54,47,99,81,40,30.19,30.08,7,2,14,0.58
2012-3-14,78,58,43,59,49,42,98,76,37,30.23,30.10,5,1,13,0.00
2012-3-15,74,58,45,64,53,44,98,86,61,30.26,30.11,3,0,10,0.05
2012-3-16,75,60,47,58,54,46,98,84,51,30.30,30.06,8,1,23,0.49
2012-3-17,73,59,54,62,56,53,99,91,65,30.24,30.09,2,0,8,0.23
2012-3-18,77,59,53,56,54,51,99,86,41,30.22,30.08,5,0,9,0.00
2012-3-19,77,56,48,57,51,46,98,85,37,30.15,30.01,0,0,12,0.00
2012-3-20,81,67,52,60,55,51,97,68,40,30.11,29.99,6,1,16,0.00
2012-3-21,77,65,52,59,54,51,97,71,43,30.16,30.05,9,2,20,0.00
2012-3-22,75,65,55,62,58,52,91,79,58,30.14,30.04,6,1,13,0.00
2012-3-23,70,63,58,63,60,57,97,89,70,30.06,29.86,2,0,12,0.40
2012-3-24,65,57,50,58,53,44,99,88,48,29.86,29.74,9,1,20,0.64
2012-3-25,63,55,48,54,49,46,97,80,58,29.89,29.77,7,1,23,0.00
2012-3-26,75,61,47,52,49,46,96,67,37,30.02,29.88,9,2,18,0.00
2012-3-27,76,58,42,53,46,42,98,70,32,30.16,30.03,6,1,15,0.00
2012-3-28,74,59,45,57,50,43,97,75,50,30.15,29.94,10,2,21,0.00
2012-3-29,77,63,52,58,54,51,96,74,42,29.96,29.83,8,1,16,0.00
2012-3-30,73,59,48,62,55,47,98,87,53,29.94,29.81,9,1,18,0.52
2012-3-31,75,63,54,60,57,51,99,83,49,29.83,29.72,6,1,14,0.05
2012-4-1,80,61,44,61,52,44,98,76,31,29.85,29.72,8,2,16,0.00
2012-4-2,83,68,56,64,58,54,96,74,39,29.82,29.70,8,2,15,0.00
2012-4-3,79,65,56,66,61,55,98,86,57,29.88,29.80,5,1,22,0.33
2012-4-4,79,64,50,64,56,50,99,78,43,29.85,29.63,7,2,21,0.00
2012-4-5,74,64,53,60,56,51,98,78,53,29.66,29.54,8,2,15,0.00
2012-4-6,68,58,46,54,49,39,97,74,36,30.01,29.65,12,2,18,0.25
2012-4-7,71,52,35,48,42,34,96,73,39,30.21,30.03,5,1,12,0.00
2012-4-8,73,56,39,50,44,38,96,69,38,30.17,30.02,9,2,21,0.00
2012-4-9,72,57,38,43,35,20,92,51,14,30.06,29.93,12,3,24,0.00
2012-4-10,66,54,39,44,38,35,90,58,39,30.00,29.88,8,2,18,0.00
2012-4-11,57,48,33,30,27,22,84,45,30,30.12,29.94,12,4,20,0.00
2012-4-12,65,46,28,38,30,24,93,60,25,30.22,30.06,7,1,15,0.00
2012-4-13,71,51,31,41,35,29,96,62,25,30.20,30.10,5,1,12,0.00
2012-4-14,75,58,39,49,44,38,95,65,37,30.26,30.09,6,2,14,0.00
2012-4-15,76,61,43,59,51,42,97,74,50,30.17,30.05,6,2,17,0.00
2012-4-16,74,68,58,61,59,56,94,73,60,30.12,30.03,8,2,18,0.01
2012-4-17,76,62,50,61,56,49,99,85,55,30.13,29.99,5,1,15,0.75
2012-4-18,64,59,56,60,57,56,99,96,83,30.02,29.96,1,0,7,1.70
2012-4-19,73,61,50,58,55,49,99,84,47,29.99,29.86,5,1,16,0.00
2012-4-20,69,58,49,58,53,48,98,86,60,29.92,29.77,2,0,9,0.00
2012-4-21,69,59,52,63,56,51,98,91,77,29.81,29.65,6,1,11,0.15
2012-4-22,55,51,44,52,44,31,91,76,59,29.72,29.59,12,5,23,0.00
2012-4-23,54,45,40,33,30,24,70,56,33,29.82,29.67,10,4,25,0.00
2012-4-24,59,47,34,46,37,30,95,72,43,29.89,29.79,7,2,20,0.01
2012-4-25,78,59,46,63,53,45,98,82,46,29.87,29.78,7,1,14,0.02
2012-4-26,65,60,55,63,59,54,98,96,85,29.87,29.77,5,0,18,1.27
2012-4-27,75,66,60,66,63,60,100,90,66,29.96,29.85,6,1,13,0.00
2012-4-28,81,68,58,65,60,56,99,79,42,30.02,29.92,6,1,13,0.00
2012-4-29,83,68,53,66,61,53,98,81,51,30.08,29.98,3,0,12,0.00
2012-4-30,84,69,54,65,58,53,98,73,35,30.11,29.98,7,2,18,0.00
2012-5-1,84,70,58,66,62,57,98,78,49,30.07,29.94,6,1,14,0.00
2012-5-2,85,72,62,66,63,60,98,76,44,30.07,29.95,6,1,12,0.00
2012-5-3,83,71,56,68,62,55,98,77,51,30.08,29.97,5,1,12,0.00
2012-5-4,79,69,62,68,64,61,97,86,64,30.05,29.90,3,0,10,0.27
2012-5-5,86,69,57,65,60,56,99,77,47,29.97,29.81,6,1,16,0.00
2012-5-6,85,68,54,63,59,53,98,78,40,29.93,29.81,9,1,17,0.00
2012-5-7,76,68,59,67,63,58,98,83,63,29.93,29.80,2,1,20,0.02
2012-5-8,78,69,62,67,63,60,97,83,59,29.85,29.74,8,1,12,0.12
2012-5-9,64,60,51,61,57,50,98,90,73,29.80,29.73,2,0,13,0.27
2012-5-10,68,54,42,52,45,41,98,75,41,29.95,29.80,9,2,18,0.00
2012-5-11,74,57,40,56,47,39,98,73,43,30.14,29.97,6,1,12,0.00
2012-5-12,54,51,50,51,50,49,97,94,91,30.18,30.15,0,0,4,0.00
2012-5-13,61,61,60,60,59,58,98,95,93,30.09,29.97,2,0,6,0.47
2012-5-14,73,64,60,67,62,59,99,93,77,29.96,29.84,5,0,14,0.89
2012-5-15,75,63,55,66,60,54,99,89,64,29.93,29.88,3,1,12,0.03
2012-5-16,77,68,52,62,58,51,98,74,53,29.96,29.85,6,1,12,0.00
2012-5-17,80,65,50,62,56,49,98,78,41,29.96,29.85,5,1,14,0.00
2012-5-18,76,63,53,64,59,52,98,89,59,30.04,29.95,7,0,15,0.44
2012-5-19,79,67,54,66,60,53,98,81,55,30.10,29.95,9,1,12,0.00
2012-5-20,80,67,54,63,58,53,98,77,49,30.09,29.94,5,1,12,0.00
2012-5-21,76,64,55,66,60,54,98,88,65,30.00,29.88,5,1,12,0.05
2012-5-22,74,63,58,64,60,57,98,90,62,29.90,29.77,3,0,8,0.24
2012-5-23,75,66,58,64,61,58,98,86,67,29.85,29.79,5,1,15,0.00
2012-5-24,81,68,55,62,59,54,98,75,44,29.95,29.84,6,1,12,0.00
2012-5-25,86,71,56,69,62,55,99,78,48,30.05,29.95,3,0,12,0.00
2012-5-26,87,73,58,70,65,57,98,77,51,30.11,29.97,5,1,12,0.00
2012-5-27,88,74,60,70,64,59,98,77,39,30.04,29.91,2,0,12,0.00
2012-5-28,86,73,59,70,64,58,99,78,48,29.97,29.83,3,0,9,0.00
2012-5-29,82,71,63,73,66,62,98,86,61,29.89,29.74,3,0,13,0.10
2012-5-30,86,72,62,67,61,52,98,73,32,29.80,29.74,6,1,13,0.02
2012-5-31,81,68,53,67,60,52,98,79,54,29.83,29.70,3,0,12,0.00
2012-6-1,75,66,56,65,62,53,98,88,67,29.81,29.67,6,1,17,1.00
2012-6-2,70,58,45,56,49,44,98,77,48,29.93,29.81,6,1,15,0.00
2012-6-3,79,62,45,64,54,45,98,78,47,29.98,29.83,9,2,20,0.00
2012-6-4,78,68,62,68,64,60,99,88,61,29.83,29.69,5,1,9,0.83
2012-6-5,76,65,59,62,60,57,98,85,57,29.78,29.67,5,1,12,0.69
2012-6-6,76,66,54,62,57,53,98,77,47,29.90,29.77,3,1,10,0.00
2012-6-7,78,66,55,61,58,54,98,78,51,29.99,29.91,7,1,12,0.00
2012-6-8,81,70,54,65,60,53,97,74,48,30.01,29.90,3,0,10,0.00
2012-6-9,78,70,63,68,64,62,95,81,64,30.02,29.91,2,0,9,0.00
2012-6-10,75,66,60,68,63,59,97,90,76,30.02,29.96,5,0,9,0.18
2012-6-11,74,70,66,72,68,65,97,93,88,29.99,29.91,3,0,9,0.06
2012-6-12,82,74,65,72,68,63,99,85,68,29.91,29.83,5,1,12,0.00
2012-6-13,84,73,59,68,64,58,98,77,53,29.93,29.84,3,0,10,0.00
2012-6-14,83,71,62,71,66,61,98,84,62,30.05,29.92,5,1,12,0.04
2012-6-15,82,68,58,69,63,57,98,84,62,30.15,30.01,5,1,10,0.34
2012-6-16,81,69,61,68,64,60,98,85,64,30.19,30.04,3,0,10,0.69
2012-6-17,80,70,63,70,66,62,98,86,64,30.10,29.92,3,0,8,0.00
2012-6-18,82,71,59,69,63,58,98,80,55,30.02,29.95,3,0,7,0.00
2012-6-19,84,71,57,69,63,56,98,79,54,30.12,30.03,5,1,9,0.00
2012-6-20,82,70,59,73,66,58,98,87,58,30.12,30.02,2,0,13,1.03
2012-6-21,86,73,61,73,68,61,99,84,58,30.05,29.85,3,0,9,0.18
2012-6-22,85,74,67,73,69,66,98,85,63,29.92,29.78,5,0,9,0.07
2012-6-23,86,74,62,72,68,61,98,82,61,29.90,29.84,2,0,8,0.00
2012-6-24,88,76,63,75,68,62,98,79,42,29.91,29.79,2,0,10,0.00
2012-6-25,88,76,64,72,68,63,98,78,54,29.82,29.63,5,1,12,0.00
2012-6-26,84,72,59,67,61,51,98,72,38,29.79,29.68,5,1,12,0.00
2012-6-27,84,66,49,66,57,48,98,76,40,29.98,29.81,2,0,8,0.00
2012-6-28,90,71,52,71,62,51,98,77,49,30.03,29.92,3,0,7,0.00
2012-6-29,97,78,61,73,66,60,98,72,38,29.94,29.80,1,0,6,0.00
2012-6-30,96,79,63,77,71,62,98,79,54,29.87,29.78,2,0,6,0.00
2012-7-1,96,81,65,79,72,64,97,78,46,29.92,29.81,1,0,7,0.00
2012-7-2,86,76,67,75,70,66,98,84,62,30.06,29.91,3,0,9,1.60
2012-7-3,87,73,67,75,69,65,97,87,53,30.00,29.87,2,0,13,0.57
2012-7-4,85,74,62,75,70,62,99,87,65,29.99,29.89,3,0,7,0.19
2012-7-5,91,77,65,75,69,64,98,78,55,29.96,29.86,13,1,23,0.00
2012-7-6,91,77,62,75,69,61,97,79,54,29.95,29.84,5,1,10,0.04
2012-7-7,90,78,66,76,72,65,98,83,59,29.96,29.87,3,0,7,0.05
2012-7-8,86,75,69,76,72,68,98,90,71,29.97,29.81,1,0,6,0.00
2012-7-9,85,77,68,76,72,67,98,85,67,29.89,29.80,3,1,10,0.00
2012-7-10,85,73,68,75,70,67,98,89,67,29.94,29.84,3,1,10,0.02
2012-7-11,75,70,67,72,69,66,99,95,88,30.00,29.92,1,0,5,0.35
2012-7-12,68,67,66,67,66,66,98,98,97,30.00,29.98,0,0,1,0.10
2012-7-14,84,78,69,73,71,68,96,79,63,30.08,30.01,2,0,12,0.00
2012-7-15,82,73,67,74,70,66,99,91,73,30.12,30.00,1,0,9,0.01
2012-7-16,87,75,64,74,69,63,99,84,60,30.05,29.89,3,0,9,0.00
2012-7-17,85,73,65,75,69,64,99,88,70,29.96,29.86,5,0,8,0.00
2012-7-18,84,74,62,75,70,62,99,86,67,29.97,29.85,5,1,10,0.00
2012-7-19,86,75,66,77,71,65,99,88,71,30.01,29.87,2,0,8,0.00
2012-7-20,84,75,67,74,70,66,98,87,66,29.92,29.83,5,1,12,0.00
2012-7-21,83,74,66,73,70,65,99,89,73,30.02,29.89,7,1,12,0.00
2012-7-22,86,78,69,75,71,68,99,79,62,30.11,30.02,3,1,9,0.00
2012-7-23,88,76,64,75,69,63,99,80,60,30.15,30.00,5,0,12,0.00
2012-7-24,89,77,66,76,71,65,99,83,62,30.04,29.86,2,0,8,0.00
2012-7-25,90,78,66,82,71,65,99,82,64,29.93,29.85,2,0,9,0.00
2012-7-26,89,78,66,75,70,60,99,77,56,29.92,29.76,6,1,12,0.00
2012-7-27,88,78,68,76,71,67,99,82,57,29.88,29.81,6,1,14,0.00
2012-7-28,89,75,64,73,68,63,99,82,53,29.96,29.87,6,1,17,0.00
2012-7-29,86,73,59,69,64,58,98,77,42,29.96,29.86,6,1,12,0.00
2012-7-30,88,74,61,72,67,60,98,79,48,29.93,29.82,5,1,12,0.00
2012-7-31,82,73,67,76,70,66,98,91,79,29.91,29.80,1,0,13,0.94
2012-8-1,86,71,62,78,68,61,99,91,67,29.91,29.80,7,1,15,0.00
2012-8-2,88,73,59,74,67,58,98,84,62,29.90,29.80,3,0,6,0.00
2012-8-3,82,73,68,75,70,67,98,92,76,29.95,29.84,5,0,9,0.11
2012-8-4,82,74,68,74,71,67,99,89,75,30.08,29.95,1,0,10,0.00
2012-8-5,86,74,68,73,70,67,99,89,63,30.13,30.02,2,1,14,0.00
2012-8-6,85,74,67,73,71,66,98,90,66,30.05,29.94,2,0,9,2.09
2012-8-7,82,74,69,78,72,69,99,93,74,29.97,29.88,2,0,7,0.14
2012-8-8,87,76,67,76,70,66,99,84,63,29.96,29.86,2,0,12,0.00
2012-8-9,83,70,64,75,68,64,99,94,73,29.94,29.79,2,0,14,0.70
2012-8-10,79,71,67,74,69,66,99,93,78,29.82,29.73,3,0,7,0.16
2012-8-11,80,69,58,72,64,56,99,87,58,29.92,29.80,6,1,13,0.09
2012-8-12,81,66,53,70,60,52,99,84,43,30.00,29.91,5,0,9,0.00
2012-8-13,78,66,54,67,61,53,99,88,63,30.00,29.91,2,0,7,0.01
2012-8-14,81,69,60,72,66,59,99,89,71,29.96,29.82,2,0,9,0.00
2012-8-15,81,70,60,70,65,59,99,86,62,29.95,29.85,6,1,14,0.00
2012-8-16,82,68,55,70,62,55,99,83,54,30.01,29.88,2,0,7,0.00
2012-8-17,79,70,61,72,66,60,99,87,68,29.97,29.81,2,0,7,0.00
2012-8-18,81,71,63,70,66,62,98,86,62,29.87,29.75,6,1,12,0.00
2012-8-19,75,68,64,70,66,63,99,93,79,29.83,29.77,2,0,5,0.46
2012-8-20,78,67,56,64,60,54,99,81,47,29.93,29.82,5,0,10,0.00
2012-8-21,80,64,51,64,58,50,99,82,45,30.02,29.94,3,0,8,0.00
2012-8-22,82,66,53,64,58,52,99,79,40,30.07,29.98,3,0,8,0.00
2012-8-23,83,68,55,67,60,54,99,79,43,30.10,30.00,2,0,9,0.12
2012-8-24,83,68,58,70,64,58,99,89,54,30.09,29.99,1,0,17,0.73
2012-8-25,84,68,57,68,64,57,99,87,56,30.11,30.00,7,1,14,0.02
2012-8-26,84,71,60,73,66,59,99,85,54,30.12,29.99,5,0,7,0.00
2012-8-27,87,72,59,71,65,59,99,81,41,30.08,29.90,3,0,10,0.00
2012-8-28,82,69,59,73,67,59,99,93,73,29.97,29.88,3,0,7,0.14
2012-8-29,85,74,68,74,71,68,99,89,65,29.94,29.83,2,0,9,0.00
2012-8-30,80,73,66,74,70,65,99,91,80,30.07,29.91,2,0,7,0.06
2012-8-31,83,74,65,76,70,64,99,88,71,30.17,30.05,3,0,9,0.00
2012-9-1,88,75,65,74,69,65,99,83,60,30.12,29.98,2,0,9,0.00
2012-9-2,85,73,67,74,70,66,99,91,68,30.02,29.84,3,0,10,0.24
2012-9-3,79,72,68,74,70,68,99,95,82,29.91,29.81,3,0,21,0.42
2012-9-4,74,70,69,72,70,69,99,98,94,29.86,29.82,0,0,4,0.12
2012-9-5,83,76,69,75,72,69,99,88,73,29.87,29.77,3,0,9,0.06
2012-9-6,85,74,66,73,70,64,99,86,67,29.89,29.81,3,1,10,0.00
2012-9-7,86,71,59,73,66,58,99,86,61,29.93,29.77,3,0,10,0.00
2012-9-8,78,69,62,72,66,60,99,91,74,29.83,29.69,5,1,12,0.13
2012-9-9,74,62,48,62,54,47,99,80,52,30.01,29.82,5,1,13,0.00
2012-9-10,76,62,48,64,55,47,98,82,51,30.10,30.01,5,1,10,0.00
2012-9-11,76,62,52,65,58,50,99,86,64,30.22,30.11,6,0,8,0.00
2012-9-12,77,66,58,64,60,57,98,84,60,30.28,30.16,3,0,8,0.00
2012-9-13,77,64,54,62,57,53,99,81,55,30.28,30.15,6,1,8,0.00
2012-9-14,76,64,53,66,59,52,98,84,59,30.22,30.12,2,0,8,0.00
2012-9-15,80,65,52,67,59,51,99,83,51,30.18,30.03,2,0,6,0.00
2012-9-16,78,67,59,68,62,58,98,85,60,30.06,29.96,3,0,12,0.00
2012-9-17,76,68,61,69,65,60,99,90,69,30.00,29.73,6,1,18,0.46
2012-9-18,70,67,60,67,64,56,98,93,86,29.86,29.61,5,1,20,2.76
2012-9-19,74,60,46,62,55,46,98,85,64,30.04,29.88,3,0,12,0.00
2012-9-20,76,62,51,63,57,50,99,87,61,30.09,29.97,3,0,8,0.00
2012-9-21,77,62,52,67,58,52,99,88,61,30.06,29.92,6,0,13,0.00
2012-9-22,79,64,53,66,59,52,99,85,61,30.01,29.89,6,1,16,0.00
2012-9-23,72,55,43,54,45,37,98,73,29,30.15,30.02,6,1,12,0.00
2012-9-24,71,50,35,49,42,34,98,80,37,30.20,30.11,3,0,9,0.00
2012-9-25,77,58,42,62,52,41,99,81,54,30.21,30.12,1,0,7,0.00
2012-9-26,78,62,49,64,57,49,99,85,53,30.19,30.08,2,0,9,0.00
2012-9-27,79,62,49,66,58,49,99,87,60,30.19,30.06,1,0,8,0.00
2012-9-28,78,64,54,68,60,53,99,87,65,30.11,29.94,5,1,10,0.00
2012-9-29,75,64,57,67,62,56,99,92,72,29.98,29.81,6,1,13,0.16
2012-9-30,72,61,50,65,58,50,99,90,69,29.86,29.75,0,0,5,0.00
2012-10-1,71,65,61,67,64,60,99,96,82,29.74,29.59,6,1,20,1.51
2012-10-2,72,67,63,65,64,61,99,89,71,29.89,29.61,5,1,13,0.53
2012-10-3,75,64,55,63,60,54,98,87,63,30.13,29.90,2,0,9,0.00
2012-10-4,74,60,52,62,56,51,98,86,57,30.23,30.14,2,0,6,0.00
2012-10-5,76,58,45,63,53,44,98,86,58,30.20,29.98,2,0,8,0.00
2012-10-6,71,59,50,63,56,49,99,90,76,30.02,29.89,5,1,10,0.00
2012-10-7,57,52,45,55,50,44,99,94,80,30.07,29.92,5,1,13,0.17
2012-10-8,53,50,46,52,49,45,98,96,93,30.14,30.03,1,0,4,0.08
2012-10-9,58,51,43,51,48,42,98,91,71,30.12,30.03,3,0,8,0.00
2012-10-10,60,48,39,55,47,38,99,94,81,30.17,30.07,3,0,8,0.00
2012-10-11,68,50,36,53,44,35,98,82,34,30.28,30.17,2,0,10,0.00
2012-10-12,70,57,48,62,54,46,98,89,73,30.25,30.17,2,0,8,0.00
2012-10-13,71,56,46,57,51,45,99,84,55,30.32,30.21,3,0,10,0.00
2012-10-14,69,60,48,62,56,47,99,89,75,30.23,29.94,3,0,9,0.00
2012-10-15,70,60,46,62,55,45,98,83,50,29.94,29.82,8,1,24,1.08
2012-10-16,69,51,38,48,41,36,98,76,31,29.97,29.85,6,0,12,0.00
2012-10-17,70,52,38,50,44,37,97,78,39,29.94,29.80,3,1,12,0.00
2012-10-18,66,59,52,60,54,48,97,86,68,29.80,29.71,5,1,13,0.11
2012-10-19,65,50,35,50,40,34,97,74,33,29.78,29.69,8,2,18,0.01
2012-10-20,64,51,42,48,44,41,96,79,50,29.96,29.77,3,0,12,0.00
2012-10-21,70,50,36,52,44,35,98,83,47,30.14,29.97,2,0,8,0.00
2012-10-22,76,54,39,57,48,38,98,82,47,30.22,30.08,2,0,9,0.00
2012-10-23,77,55,43,58,49,42,99,83,37,30.18,30.05,3,0,9,0.00
2012-10-24,77,55,41,57,48,40,98,80,43,30.19,30.03,2,0,9,0.00
2012-10-25,76,56,41,58,49,40,98,80,49,30.11,30.00,3,0,10,0.00
2012-10-26,77,58,48,59,52,47,99,84,49,30.04,29.88,1,0,10,0.00
2012-10-27,67,58,51,59,54,47,97,87,72,29.89,29.73,7,1,12,0.00
2012-10-28,50,47,42,48,44,38,98,91,84,29.86,29.75,2,0,17,0.30
2012-10-29,42,40,38,38,36,30,91,84,64,29.87,29.72,9,2,24,0.04
2012-10-30,42,40,37,37,33,28,95,77,63,29.77,29.61,7,2,18,0.02
2012-10-31,55,41,31,38,32,23,94,73,31,29.87,29.76,9,2,20,0.01
2012-11-1,57,39,26,33,26,20,95,68,25,29.98,29.87,9,2,15,0.00
2012-11-2,67,46,30,45,37,28,93,73,38,30.00,29.87,7,1,20,0.00
2012-11-3,71,49,31,55,40,30,97,77,32,30.11,29.97,6,1,12,0.00
2012-11-4,62,53,46,55,47,39,98,83,64,29.99,29.91,6,1,14,0.00
2012-11-5,60,43,30,38,32,24,97,71,25,30.06,29.94,2,0,8,0.00
2012-11-6,49,44,40,42,40,37,96,86,72,29.99,29.89,6,1,14,0.12
2012-11-7,47,44,42,43,41,39,97,88,75,30.01,29.84,5,1,12,0.16
2012-11-8,59,42,30,39,33,27,96,74,30,30.18,30.01,5,0,14,0.00
2012-11-9,64,41,27,41,33,26,97,78,34,30.31,30.19,3,0,9,0.00
2012-11-10,70,44,30,42,35,29,96,76,27,30.37,30.24,3,0,9,0.00
2012-11-11,65,51,32,52,42,31,96,74,46,30.42,30.28,9,2,20,0.00
2012-11-12,65,59,46,59,53,44,94,81,70,30.25,30.09,8,1,17,0.41
2012-11-13,54,41,30,44,34,29,97,79,44,30.34,30.22,5,1,12,0.04
2012-11-14,55,39,26,40,33,25,97,80,46,30.41,30.27,3,0,8,0.00
2012-11-15,60,46,35,45,39,33,95,81,52,30.27,30.14,6,0,9,0.00
2012-11-16,59,40,28,44,35,27,98,83,44,30.34,30.21,5,0,9,0.00
2012-11-17,62,40,27,40,32,26,97,78,31,30.44,30.31,3,0,8,0.00
2012-11-18,64,42,27,45,33,26,96,75,30,30.42,30.29,2,0,10,0.00
2012-11-19,63,42,30,49,38,29,98,87,59,30.34,30.19,3,0,9,0.00
2012-11-20,63,46,35,46,39,34,98,80,42,30.20,30.03,7,1,14,0.00
2012-11-21,65,46,34,47,39,33,98,82,46,30.17,30.08,6,1,15,0.00
2012-11-22,66,44,31,44,38,31,98,82,42,30.23,30.11,3,0,10,0.00
2012-11-23,63,44,31,50,38,30,98,84,57,30.18,30.00,8,2,14,0.00
2012-11-24,44,37,25,40,30,17,87,77,36,30.13,30.02,5,0,14,0.00
2012-11-25,54,33,22,27,21,10,89,67,18,30.18,30.05,2,0,10,0.00
2012-11-26,63,39,25,55,31,22,93,78,24,30.22,30.11,1,0,6,0.02
2012-11-27,52,48,44,51,47,43,97,97,96,30.20,30.06,1,0,3,0.09
2012-11-28,55,43,31,54,42,31,97,97,97,30.29,30.20,0,0,0,0.00
2012-11-29,58,37,26,42,31,25,97,82,40,30.35,30.22,3,0,10,0.00
2012-11-30,55,38,27,53,36,25,93,93,93,30.37,30.27,0,0,0,0.00
2012-12-1,62,41,31,48,37,29,95,88,58,30.36,30.20,3,0,9,0.00
2012-12-2,65,48,37,53,44,36,99,86,58,30.36,30.22,3,0,12,0.00
2012-12-3,68,48,36,57,44,35,97,87,57,30.30,30.18,6,0,12,0.00
2012-12-4,66,53,38,56,48,37,98,85,61,30.29,30.16,5,0,7,0.00
2012-12-5,63,57,52,62,56,50,95,95,92,30.16,30.06,0,0,2,0.00
2012-12-6,62,56,49,61,54,48,95,95,95,30.11,30.02,0,0,0,0.00
2012-12-7,64,55,50,63,54,48,95,95,95,30.03,29.89,0,0,0,0.00
2012-12-8,62,56,54,60,55,52,95,95,95,29.98,29.91,0,0,0,0.00
2012-12-9,64,58,56,59,55,53,95,89,75,30.00,29.89,2,0,8,0.00
2012-12-10,61,57,52,58,56,51,97,95,88,29.87,29.63,3,0,16,0.87
2012-12-11,52,42,36,51,41,35,97,97,97,30.05,29.76,0,0,0,0.00
2012-12-12,46,37,33,45,36,32,97,97,97,30.15,30.07,0,0,0,0.00
2012-12-13,55,37,32,54,36,31,97,97,97,30.25,30.15,0,0,0,0.00
2012-12-14,53,35,27,52,34,26,97,96,80,30.28,30.13,0,0,3,0.00
2012-12-15,58,45,34,45,39,33,98,82,53,30.22,30.02,2,0,5,0.00
2012-12-16,48,48,47,48,47,45,98,97,94,30.03,29.95,0,0,4,0.11
2012-12-17,55,51,48,54,51,48,98,98,98,29.77,29.61,0,0,0,0.11
2012-12-18,54,45,30,52,39,28,98,83,40,30.00,29.61,5,1,10,0.00
2012-12-19,59,40,28,48,36,28,98,87,58,30.10,30.00,2,0,5,0.00
2012-12-20,51,44,36,50,43,35,98,98,97,30.07,29.61,1,0,4,0.00
2012-12-21,39,34,31,38,34,31,98,98,98,30.01,29.74,0,0,0,0.00
2012-12-22,49,34,20,48,33,20,98,98,98,30.13,30.01,0,0,0,0.00
2012-12-23,49,33,21,48,32,20,98,98,98,30.11,29.96,0,0,0,0.00
2012-12-24,48,44,40,47,43,40,98,98,98,29.98,29.76,0,0,0,0.00
2012-12-25,52,48,44,52,47,43,98,98,98,29.93,29.73,0,0,0,0.00
2012-12-26,56,45,33,56,44,33,98,98,98,29.81,29.34,0,0,0,0.00
2012-12-27,41,35,31,41,34,30,98,98,98,29.98,29.83,0,0,0,0.00
2012-12-28,49,38,28,48,37,28,98,98,98,30.00,29.80,0,0,0,0.00
2012-12-29,42,37,31,42,35,24,98,92,76,30.16,29.68,6,1,15,0.00
2012-12-30,44,33,26,29,24,22,93,73,40,30.41,30.19,3,1,9,0.00
2012-12-31,49,35,24,34,28,23,96,78,37,30.40,30.18,3,0,7,0.00
2013-1-1,48,42,36,47,40,33,93,92,85,30.13,29.96,0,0,3,0.01